ANA714 RJCC-RKSI

Flight info

Callsign ANA714
Flight time 2h 47m
Altitude 40000
Route DALBI Y120 TAPPI Y12 ARIKA Y14 SUGNO Y16 SAPRA Y685 GUKDO GUKDO2E
Aircraft B772/H-SDE2E3FGHIJ5LORVWXY/LB1D1

Departure

Time 2026-05-04 03:10
Airport New Chitose Airport (RJCC)

Arrival

Time 2026-05-04 05:58
Airport Incheon International Airport (RKSI)
Time Latitude Longitude Altitude Speed Heading
2026-05-04 02:45 42.78673 141.68275 83 ft 0 kts 285°
2026-05-04 03:04 42.78673 141.68278 88 ft 2 kts 285°
2026-05-04 03:04 42.78666 141.68312 86 ft 4 kts 285°
2026-05-04 03:04 42.78659 141.68347 83 ft 4 kts 285°
2026-05-04 03:05 42.78652 141.68378 83 ft 4 kts 306°
2026-05-04 03:05 42.78634 141.68392 88 ft 4 kts 13°
2026-05-04 03:05 42.78614 141.68384 83 ft 0 kts 14°
2026-05-04 03:07 42.78649 141.68395 85 ft 7 kts 12°
2026-05-04 03:07 42.78699 141.68407 87 ft 7 kts
2026-05-04 03:08 42.78750 141.68413 86 ft 7 kts
2026-05-04 03:08 42.78794 141.68458 85 ft 8 kts 64°
2026-05-04 03:08 42.78807 141.68535 83 ft 8 kts 82°
2026-05-04 03:08 42.78815 141.68613 87 ft 8 kts 83°
2026-05-04 03:09 42.78822 141.68692 88 ft 8 kts 83°
2026-05-04 03:09 42.78826 141.68770 88 ft 8 kts 95°
2026-05-04 03:09 42.78786 141.68821 88 ft 8 kts 165°
2026-05-04 03:09 42.78727 141.68833 88 ft 11 kts 172°
2026-05-04 03:10 42.78537 141.68866 86 ft 55 kts 172°
2026-05-04 03:10 42.77918 141.68976 86 ft 122 kts 172°
2026-05-04 03:10 42.76909 141.69162 376 ft 153 kts 173°
2026-05-04 03:10 42.75908 141.69359 1455 ft 140 kts 174°
2026-05-04 03:11 42.74954 141.69539 2231 ft 144 kts 177°
2026-05-04 03:11 42.73893 141.69736 2425 ft 166 kts 177°
2026-05-04 03:11 42.72671 141.69972 2573 ft 191 kts 176°
2026-05-04 03:11 42.71275 141.70250 2762 ft 215 kts 176°
2026-05-04 03:12 42.69732 141.70559 3169 ft 229 kts 176°
2026-05-04 03:12 42.68134 141.70886 3837 ft 236 kts 176°
2026-05-04 03:12 42.66491 141.71223 4451 ft 242 kts 177°
2026-05-04 03:12 42.64835 141.71265 4874 ft 238 kts 199°
2026-05-04 03:13 42.63419 141.70195 5569 ft 233 kts 223°
2026-05-04 03:13 42.62371 141.68537 6322 ft 232 kts 237°
2026-05-04 03:13 42.61753 141.66510 6943 ft 238 kts 253°
2026-05-04 03:13 42.61430 141.64271 7536 ft 245 kts 256°
2026-05-04 03:14 42.61152 141.61979 8223 ft 247 kts 256°
2026-05-04 03:14 42.60876 141.59662 8929 ft 250 kts 256°
2026-05-04 03:14 42.60590 141.57320 9585 ft 253 kts 256°
2026-05-04 03:14 42.60294 141.54949 10280 ft 257 kts 256°
2026-05-04 03:15 42.59973 141.52454 10546 ft 281 kts 256°
2026-05-04 03:15 42.59619 141.49736 10776 ft 304 kts 256°
2026-05-04 03:15 42.59244 141.46857 11418 ft 315 kts 256°
2026-05-04 03:15 42.58862 141.43947 12299 ft 321 kts 256°
2026-05-04 03:16 42.58461 141.40908 13213 ft 325 kts 256°
2026-05-04 03:16 42.58059 141.37871 14062 ft 328 kts 256°
2026-05-04 03:16 42.57653 141.34819 15004 ft 329 kts 255°
2026-05-04 03:16 42.57247 141.31799 15941 ft 330 kts 255°
2026-05-04 03:17 42.56834 141.28727 16856 ft 332 kts 253°
2026-05-04 03:17 42.56255 141.25699 17664 ft 331 kts 244°
2026-05-04 03:17 42.55350 141.22833 18430 ft 329 kts 240°
2026-05-04 03:17 42.54373 141.20052 19414 ft 324 kts 240°
2026-05-04 03:18 42.53421 141.17300 20422 ft 320 kts 240°
2026-05-04 03:18 42.52502 141.14556 21271 ft 320 kts 240°
2026-05-04 03:18 42.51589 141.11784 21958 ft 324 kts 240°
2026-05-04 03:18 42.50651 141.09002 22737 ft 322 kts 238°
2026-05-04 03:19 42.49427 141.06503 23460 ft 318 kts 229°
2026-05-04 03:19 42.47900 141.04324 24099 ft 319 kts 224°
2026-05-04 03:19 42.46308 141.02205 24713 ft 322 kts 224°
2026-05-04 03:19 42.44695 141.00083 25259 ft 324 kts 224°
2026-05-04 03:20 42.43097 140.97968 25853 ft 327 kts 224°
2026-05-04 03:20 42.41443 140.95783 26445 ft 329 kts 224°
2026-05-04 03:20 42.39821 140.93638 26966 ft 332 kts 224°
2026-05-04 03:20 42.38166 140.91443 27501 ft 334 kts 224°
2026-05-04 03:21 42.36505 140.89237 28006 ft 336 kts 224°
2026-05-04 03:21 42.34832 140.87011 28452 ft 338 kts 224°
2026-05-04 03:21 42.33149 140.84772 28880 ft 341 kts 224°
2026-05-04 03:21 42.31454 140.82519 29414 ft 341 kts 224°
2026-05-04 03:22 42.29764 140.80271 29804 ft 342 kts 224°
2026-05-04 03:22 42.28060 140.78008 30092 ft 345 kts 224°
2026-05-04 03:22 42.26336 140.75720 30356 ft 348 kts 224°
2026-05-04 03:22 42.24601 140.73419 30616 ft 351 kts 224°
2026-05-04 03:23 42.22851 140.71100 30885 ft 353 kts 224°
2026-05-04 03:23 42.21097 140.68779 31161 ft 354 kts 224°
2026-05-04 03:23 42.19337 140.66451 31491 ft 353 kts 224°
2026-05-04 03:23 42.17585 140.64133 31770 ft 353 kts 224°
2026-05-04 03:24 42.15830 140.61817 32128 ft 353 kts 225°
2026-05-04 03:24 42.14672 140.60290 32397 ft 351 kts 225°
2026-05-04 03:24 42.12926 140.57988 32776 ft 350 kts 225°
2026-05-04 03:24 42.11130 140.55767 33131 ft 351 kts 220°
2026-05-04 03:25 42.09096 140.53925 33439 ft 354 kts 216°
2026-05-04 03:25 42.06258 140.51740 33768 ft 355 kts 213°
2026-05-04 03:25 42.04778 140.50687 33911 ft 357 kts 212°
2026-05-04 03:25 42.02471 140.49361 34052 ft 367 kts 205°
2026-05-04 03:26 42.00001 140.48407 34328 ft 371 kts 204°
2026-05-04 03:26 41.97524 140.47499 34748 ft 367 kts 204°
2026-05-04 03:26 41.95062 140.46601 35033 ft 366 kts 204°
2026-05-04 03:26 41.92619 140.45699 35150 ft 370 kts 204°
2026-05-04 03:27 41.90128 140.44776 35294 ft 372 kts 204°
2026-05-04 03:27 41.87626 140.43849 35521 ft 373 kts 204°
2026-05-04 03:27 41.85127 140.42916 35694 ft 374 kts 204°
2026-05-04 03:27 41.82608 140.41974 35868 ft 376 kts 203°
2026-05-04 03:28 41.80082 140.41027 36065 ft 377 kts 203°
2026-05-04 03:28 41.77544 140.40079 36287 ft 379 kts 203°
2026-05-04 03:28 41.74996 140.39130 36425 ft 381 kts 203°
2026-05-04 03:28 41.72437 140.38176 36612 ft 382 kts 203°
2026-05-04 03:29 41.69867 140.37216 36780 ft 383 kts 203°
2026-05-04 03:29 41.67296 140.36258 36921 ft 384 kts 203°
2026-05-04 03:29 41.64716 140.35299 37074 ft 385 kts 203°
2026-05-04 03:29 41.62129 140.34338 37211 ft 386 kts 202°
2026-05-04 03:30 41.59541 140.33377 37434 ft 384 kts 202°
2026-05-04 03:30 41.56958 140.32420 37583 ft 385 kts 202°
2026-05-04 03:30 41.54369 140.31462 37723 ft 387 kts 202°
2026-05-04 03:30 41.51771 140.30505 37841 ft 388 kts 203°
2026-05-04 03:31 41.49169 140.29543 37973 ft 389 kts 202°
2026-05-04 03:31 41.46551 140.28584 38112 ft 390 kts 202°
2026-05-04 03:31 41.43936 140.27628 38240 ft 390 kts 202°
2026-05-04 03:31 41.41318 140.26670 38367 ft 391 kts 202°
2026-05-04 03:32 41.38726 140.25719 38499 ft 391 kts 202°
2026-05-04 03:32 41.36097 140.24755 38611 ft 392 kts 202°
2026-05-04 03:32 41.33482 140.23797 38757 ft 389 kts 202°
2026-05-04 03:32 41.30874 140.22843 38893 ft 389 kts 202°
2026-05-04 03:33 41.28258 140.21885 38966 ft 391 kts 202°
2026-05-04 03:33 41.23002 140.19964 39148 ft 392 kts 202°
2026-05-04 03:33 41.20373 140.19005 39256 ft 392 kts 202°
2026-05-04 03:34 41.17740 140.18045 39344 ft 393 kts 202°
2026-05-04 03:34 41.12457 140.16126 39453 ft 394 kts 202°
2026-05-04 03:35 41.07161 140.14287 39445 ft 391 kts 201°
2026-05-04 03:35 41.01899 140.12484 39459 ft 389 kts 201°
2026-05-04 03:36 40.96666 140.10684 39464 ft 388 kts 201°
2026-05-04 03:36 40.91439 140.08883 39493 ft 389 kts 202°
2026-05-04 03:37 40.86185 140.07074 39481 ft 391 kts 202°
2026-05-04 03:37 40.80924 140.05267 39464 ft 390 kts 201°
2026-05-04 03:38 40.75690 140.03472 39488 ft 391 kts 201°
2026-05-04 03:38 40.70404 140.01662 39562 ft 393 kts 202°
2026-05-04 03:39 40.65096 139.99847 39493 ft 394 kts 202°
2026-05-04 03:39 40.59797 139.98042 39446 ft 392 kts 202°
2026-05-04 03:40 40.54524 139.96244 39500 ft 390 kts 202°
2026-05-04 03:40 40.49299 139.94466 39557 ft 390 kts 202°
2026-05-04 03:41 40.44161 139.92332 39524 ft 383 kts 208°
2026-05-04 03:41 40.39356 139.89433 39521 ft 378 kts 212°
2026-05-04 03:42 40.34693 139.86274 39524 ft 377 kts 212°
2026-05-04 03:42 40.30037 139.83124 39515 ft 377 kts 212°
2026-05-04 03:43 40.25368 139.79978 39535 ft 378 kts 212°
2026-05-04 03:43 40.20688 139.76835 39527 ft 379 kts 212°
2026-05-04 03:44 40.15984 139.73681 39534 ft 380 kts 212°
2026-05-04 03:44 40.11312 139.70553 39535 ft 381 kts 212°
2026-05-04 03:45 40.06587 139.67394 39541 ft 382 kts 212°
2026-05-04 03:45 40.01850 139.64268 39531 ft 381 kts 212°
2026-05-04 03:46 39.97113 139.61193 39540 ft 380 kts 212°
2026-05-04 03:46 39.92375 139.58122 39544 ft 380 kts 212°
2026-05-04 03:47 39.87637 139.55051 39541 ft 380 kts 212°
2026-05-04 03:47 39.82935 139.52006 39541 ft 380 kts 212°
2026-05-04 03:48 39.78196 139.48941 39553 ft 380 kts 212°
2026-05-04 03:48 39.73462 139.45884 39542 ft 380 kts 212°
2026-05-04 03:49 39.68732 139.42833 39550 ft 380 kts 212°
2026-05-04 03:49 39.63999 139.39785 39555 ft 379 kts 212°
2026-05-04 03:50 39.59268 139.36744 39562 ft 380 kts 212°
2026-05-04 03:50 39.54524 139.33698 39560 ft 380 kts 212°
2026-05-04 03:51 39.49817 139.30681 39565 ft 380 kts 212°
2026-05-04 03:51 39.45082 139.27653 39570 ft 379 kts 213°
2026-05-04 03:52 39.40354 139.24631 39575 ft 378 kts 213°
2026-05-04 03:52 39.35668 139.21640 39564 ft 378 kts 213°
2026-05-04 03:53 39.30950 139.18635 39582 ft 378 kts 213°
2026-05-04 03:53 39.26228 139.15631 39580 ft 378 kts 213°
2026-05-04 03:54 39.21511 139.12635 39585 ft 378 kts 213°
2026-05-04 03:54 39.16796 139.09645 39578 ft 378 kts 213°
2026-05-04 03:55 39.12080 139.06658 39585 ft 378 kts 213°
2026-05-04 03:55 39.07359 139.03673 39598 ft 378 kts 212°
2026-05-04 03:56 39.02630 139.00687 39595 ft 379 kts 212°
2026-05-04 03:56 38.97931 138.97725 39590 ft 379 kts 212°
2026-05-04 03:57 38.93194 138.94743 39551 ft 378 kts 213°
2026-05-04 03:57 38.88480 138.91782 39591 ft 377 kts 213°
2026-05-04 03:58 38.81429 138.87359 39605 ft 375 kts 213°
2026-05-04 03:58 38.76744 138.84424 39608 ft 375 kts 213°
2026-05-04 03:59 38.72061 138.81496 39613 ft 375 kts 213°
2026-05-04 03:59 38.67371 138.78566 39616 ft 375 kts 213°
2026-05-04 04:00 38.62690 138.75650 39604 ft 374 kts 213°
2026-05-04 04:00 38.58016 138.72740 39606 ft 373 kts 213°
2026-05-04 04:01 38.53359 138.69844 39617 ft 372 kts 213°
2026-05-04 04:01 38.48733 138.66972 39624 ft 372 kts 213°
2026-05-04 04:02 38.44075 138.64085 39626 ft 372 kts 213°
2026-05-04 04:02 38.39412 138.61198 39570 ft 373 kts 213°
2026-05-04 04:03 38.34755 138.58319 39623 ft 372 kts 214°
2026-05-04 04:03 38.30097 138.55444 39638 ft 372 kts 214°
2026-05-04 04:04 38.25439 138.52573 39638 ft 372 kts 214°
2026-05-04 04:04 38.20772 138.49699 39646 ft 374 kts 213°
2026-05-04 04:05 38.16111 138.46834 39650 ft 375 kts 213°
2026-05-04 04:05 38.11422 138.43935 39613 ft 371 kts 217°
2026-05-04 04:06 38.07480 138.39962 39652 ft 359 kts 227°
2026-05-04 04:06 38.04096 138.35313 39663 ft 358 kts 236°
2026-05-04 04:07 38.01621 138.29809 39661 ft 360 kts 240°
2026-05-04 04:07 37.99200 138.24228 39663 ft 361 kts 240°
2026-05-04 04:08 37.96763 138.18683 39658 ft 363 kts 240°
2026-05-04 04:08 37.94294 138.13098 39667 ft 364 kts 240°
2026-05-04 04:09 37.91811 138.07500 39667 ft 365 kts 240°
2026-05-04 04:09 37.89319 138.01897 39670 ft 365 kts 240°
2026-05-04 04:10 37.86824 137.96293 39669 ft 365 kts 240°
2026-05-04 04:10 37.84330 137.90699 39666 ft 365 kts 240°
2026-05-04 04:11 37.81834 137.85108 39666 ft 364 kts 240°
2026-05-04 04:11 37.79360 137.79576 39667 ft 364 kts 240°
2026-05-04 04:12 37.76866 137.74012 39683 ft 364 kts 240°
2026-05-04 04:12 37.74368 137.68445 39676 ft 364 kts 240°
2026-05-04 04:13 37.71865 137.62878 39677 ft 365 kts 240°
2026-05-04 04:13 37.69356 137.57307 39683 ft 365 kts 240°
2026-05-04 04:14 37.66845 137.51741 39682 ft 365 kts 240°
2026-05-04 04:14 37.64329 137.46174 39683 ft 365 kts 240°
2026-05-04 04:15 37.61810 137.40608 39688 ft 365 kts 240°
2026-05-04 04:15 37.59302 137.35077 39691 ft 365 kts 240°
2026-05-04 04:16 37.56776 137.29516 39708 ft 365 kts 240°
2026-05-04 04:16 37.54251 137.23968 39709 ft 365 kts 240°
2026-05-04 04:17 37.51727 137.18429 39710 ft 364 kts 240°
2026-05-04 04:17 37.49632 137.13841 39716 ft 363 kts 240°
2026-05-04 04:18 37.47113 137.08332 39724 ft 363 kts 240°
2026-05-04 04:18 37.44593 137.02829 39721 ft 363 kts 240°
2026-05-04 04:19 37.42070 136.97329 39721 ft 363 kts 240°
2026-05-04 04:19 37.39545 136.91833 39723 ft 363 kts 240°
2026-05-04 04:20 37.37035 136.86382 39722 ft 363 kts 240°
2026-05-04 04:20 37.34509 136.80903 39741 ft 362 kts 240°
2026-05-04 04:21 37.31977 136.75416 39739 ft 363 kts 240°
2026-05-04 04:21 37.29440 136.69932 39757 ft 363 kts 240°
2026-05-04 04:22 37.26905 136.64463 39739 ft 362 kts 240°
2026-05-04 04:22 37.24374 136.59012 39742 ft 360 kts 240°
2026-05-04 04:23 37.21849 136.53580 39742 ft 360 kts 240°
2026-05-04 04:23 37.19329 136.48168 39746 ft 359 kts 240°
2026-05-04 04:24 37.16815 136.42778 39746 ft 357 kts 240°
2026-05-04 04:24 37.14319 136.37435 39753 ft 357 kts 240°
2026-05-04 04:25 37.11808 136.32069 39760 ft 357 kts 240°
2026-05-04 04:25 37.09294 136.26705 39761 ft 357 kts 240°
2026-05-04 04:26 37.06774 136.21337 39761 ft 357 kts 240°
2026-05-04 04:26 37.04253 136.15974 39766 ft 358 kts 240°
2026-05-04 04:27 37.01726 136.10606 39764 ft 358 kts 240°
2026-05-04 04:27 36.99209 136.05271 39771 ft 358 kts 240°
2026-05-04 04:28 36.96673 135.99908 39773 ft 359 kts 240°
2026-05-04 04:28 36.94129 135.94539 39771 ft 359 kts 239°
2026-05-04 04:29 36.91582 135.89171 39778 ft 359 kts 239°
2026-05-04 04:29 36.89030 135.83798 39779 ft 359 kts 239°
2026-05-04 04:30 36.86478 135.78434 39785 ft 359 kts 239°
2026-05-04 04:30 36.83939 135.73106 39781 ft 359 kts 239°
2026-05-04 04:31 36.81385 135.67753 39758 ft 359 kts 239°
2026-05-04 04:31 36.78832 135.62413 39776 ft 358 kts 239°
2026-05-04 04:32 36.76284 135.57090 39783 ft 357 kts 239°
2026-05-04 04:32 36.73735 135.51774 39788 ft 357 kts 239°
2026-05-04 04:33 36.71184 135.46463 39785 ft 357 kts 239°
2026-05-04 04:33 36.68628 135.41149 39795 ft 358 kts 239°
2026-05-04 04:34 36.66063 135.35826 39796 ft 359 kts 239°
2026-05-04 04:34 36.63485 135.30484 39802 ft 359 kts 239°
2026-05-04 04:35 36.60922 135.25182 39800 ft 360 kts 239°
2026-05-04 04:35 36.58333 135.19833 39806 ft 361 kts 239°
2026-05-04 04:36 36.55737 135.14479 39805 ft 362 kts 239°
2026-05-04 04:36 36.53135 135.09123 39805 ft 362 kts 239°
2026-05-04 04:37 36.47937 134.98444 39810 ft 360 kts 239°
2026-05-04 04:38 36.45342 134.93126 39815 ft 359 kts 239°
2026-05-04 04:38 36.42749 134.87822 39824 ft 359 kts 239°
2026-05-04 04:39 36.40155 134.82523 39826 ft 359 kts 239°
2026-05-04 04:39 36.37570 134.77248 39829 ft 360 kts 239°
2026-05-04 04:40 36.34963 134.71939 39835 ft 361 kts 239°
2026-05-04 04:40 36.32347 134.66619 39820 ft 361 kts 239°
2026-05-04 04:41 36.29725 134.61294 39833 ft 362 kts 239°
2026-05-04 04:41 36.27098 134.55965 39829 ft 362 kts 239°
2026-05-04 04:42 36.24481 134.50671 39836 ft 362 kts 239°
2026-05-04 04:42 36.21845 134.45345 39842 ft 362 kts 239°
2026-05-04 04:43 36.19211 134.40028 39851 ft 362 kts 239°
2026-05-04 04:43 36.16577 134.34718 39848 ft 362 kts 239°
2026-05-04 04:44 36.13938 134.29405 39837 ft 362 kts 239°
2026-05-04 04:44 36.11304 134.24111 39851 ft 361 kts 239°
2026-05-04 04:45 36.08688 134.18860 39856 ft 361 kts 239°
2026-05-04 04:47 35.99437 134.00353 39865 ft 362 kts 240°
2026-05-04 04:47 35.97475 133.94650 39876 ft 363 kts 250°
2026-05-04 04:48 35.96156 133.88660 39869 ft 365 kts 255°
2026-05-04 04:49 35.95527 133.72821 39891 ft 370 kts 262°
2026-05-04 04:49 35.95342 133.66467 39885 ft 371 kts 262°
2026-05-04 04:50 35.95144 133.60108 39880 ft 371 kts 262°
2026-05-04 04:50 35.94938 133.53742 39884 ft 371 kts 262°
2026-05-04 04:51 35.94727 133.47377 39882 ft 372 kts 262°
2026-05-04 04:51 35.94511 133.40982 39907 ft 374 kts 262°
2026-05-04 04:52 35.94291 133.34547 39894 ft 377 kts 262°
2026-05-04 04:52 35.94068 133.28121 39895 ft 378 kts 262°
2026-05-04 04:53 35.93839 133.21626 39921 ft 379 kts 262°
2026-05-04 04:53 35.93605 133.15099 39900 ft 381 kts 262°
2026-05-04 04:54 35.93370 133.08578 39890 ft 380 kts 262°
2026-05-04 04:54 35.93132 133.02117 39923 ft 379 kts 263°
2026-05-04 04:55 35.92888 132.95609 39912 ft 380 kts 263°
2026-05-04 04:55 35.92641 132.89097 39904 ft 380 kts 263°
2026-05-04 04:56 35.92390 132.82576 39907 ft 380 kts 263°
2026-05-04 04:56 35.92135 132.76054 39910 ft 380 kts 262°
2026-05-04 04:57 35.91879 132.69556 39900 ft 378 kts 262°
2026-05-04 04:57 35.91619 132.63083 39908 ft 377 kts 262°
2026-05-04 04:58 35.91355 132.56613 39924 ft 379 kts 263°
2026-05-04 04:58 35.91088 132.50152 39922 ft 380 kts 262°
2026-05-04 04:59 35.90815 132.43635 39929 ft 381 kts 262°
2026-05-04 04:59 35.90539 132.37092 39919 ft 383 kts 263°
2026-05-04 05:00 35.90258 132.30536 39922 ft 382 kts 263°
2026-05-04 05:01 35.89833 132.20754 39934 ft 383 kts 263°
2026-05-04 05:01 35.89542 132.14184 39945 ft 384 kts 263°
2026-05-04 05:02 35.89247 132.07596 39941 ft 385 kts 263°
2026-05-04 05:02 35.88949 132.01005 39940 ft 385 kts 263°
2026-05-04 05:03 35.88647 131.94413 39935 ft 385 kts 263°
2026-05-04 05:04 35.88033 131.81249 39949 ft 384 kts 263°
2026-05-04 05:04 35.87722 131.74709 39965 ft 385 kts 263°
2026-05-04 05:06 35.86431 131.48287 39962 ft 385 kts 263°
2026-05-04 05:07 35.86102 131.41737 39963 ft 385 kts 263°
2026-05-04 05:07 35.85767 131.35150 39961 ft 385 kts 263°
2026-05-04 05:09 35.84211 131.05396 39970 ft 387 kts 263°
2026-05-04 05:10 35.83855 130.98777 39963 ft 387 kts 263°
2026-05-04 05:10 35.83497 130.92201 39964 ft 387 kts 263°
2026-05-04 05:11 35.83134 130.85572 39970 ft 388 kts 263°
2026-05-04 05:11 35.82765 130.78915 39965 ft 389 kts 263°
2026-05-04 05:12 35.82657 130.72250 39949 ft 390 kts 268°
2026-05-04 05:12 35.83233 130.65580 39962 ft 393 kts 273°
2026-05-04 05:13 35.83945 130.60054 39968 ft 392 kts 274°
2026-05-04 05:13 35.84944 130.52343 39962 ft 392 kts 273°
2026-05-04 05:14 35.85787 130.45717 39992 ft 392 kts 274°
2026-05-04 05:14 35.86482 130.40195 39964 ft 392 kts 274°
2026-05-04 05:15 35.87314 130.33551 39964 ft 392 kts 274°
2026-05-04 05:15 35.88143 130.26898 39965 ft 392 kts 274°
2026-05-04 05:16 35.88968 130.20240 39968 ft 393 kts 274°
2026-05-04 05:16 35.89792 130.13562 39960 ft 394 kts 274°
2026-05-04 05:17 35.90613 130.06894 39948 ft 392 kts 273°
2026-05-04 05:17 35.91419 130.00293 39959 ft 392 kts 274°
2026-05-04 05:18 35.92228 129.93647 39955 ft 391 kts 274°
2026-05-04 05:18 35.93033 129.87011 39953 ft 391 kts 274°
2026-05-04 05:19 35.93832 129.80376 39974 ft 391 kts 274°
2026-05-04 05:19 35.94622 129.73718 39953 ft 392 kts 274°
2026-05-04 05:20 35.95409 129.67055 39947 ft 393 kts 274°
2026-05-04 05:20 35.96195 129.60381 39945 ft 393 kts 274°
2026-05-04 05:21 35.96993 129.53734 39948 ft 396 kts 276°
2026-05-04 05:21 35.98746 129.47212 39948 ft 405 kts 286°
2026-05-04 05:22 36.01355 129.40978 39937 ft 415 kts 296°
2026-05-04 05:22 36.04726 129.35161 39964 ft 416 kts 297°
2026-05-04 05:23 36.08124 129.29379 39943 ft 415 kts 297°
2026-05-04 05:23 36.11481 129.23590 39918 ft 414 kts 297°
2026-05-04 05:24 36.14812 129.17794 39942 ft 413 kts 297°
2026-05-04 05:24 36.18108 129.12042 39958 ft 412 kts 297°
2026-05-04 05:25 36.21422 129.06249 39931 ft 412 kts 297°
2026-05-04 05:25 36.24733 129.00451 39924 ft 412 kts 297°
2026-05-04 05:26 36.28038 128.94655 39934 ft 412 kts 297°
2026-05-04 05:26 36.31343 128.88852 39949 ft 411 kts 297°
2026-05-04 05:28 36.44537 128.65623 39943 ft 415 kts 297°
2026-05-04 05:29 36.47861 128.59748 39941 ft 416 kts 297°
2026-05-04 05:29 36.51186 128.53862 39933 ft 416 kts 297°
2026-05-04 05:31 36.64456 128.30287 39926 ft 417 kts 298°
2026-05-04 05:32 36.67823 128.24414 39930 ft 417 kts 298°
2026-05-04 05:33 36.72787 128.15739 39362 ft 403 kts 297°
2026-05-04 05:33 36.74406 128.12894 38811 ft 403 kts 297°
2026-05-04 05:33 36.76027 128.10042 38088 ft 404 kts 297°
2026-05-04 05:33 36.77653 128.07182 37365 ft 405 kts 297°
2026-05-04 05:34 36.79284 128.04315 36707 ft 404 kts 297°
2026-05-04 05:34 36.80901 128.01474 36186 ft 400 kts 297°
2026-05-04 05:34 36.82503 127.98659 35686 ft 396 kts 297°
2026-05-04 05:34 36.84084 127.95867 35187 ft 392 kts 297°
2026-05-04 05:35 36.85650 127.93093 34712 ft 389 kts 297°
2026-05-04 05:35 36.87199 127.90335 34232 ft 386 kts 297°
2026-05-04 05:35 36.88727 127.87596 33738 ft 382 kts 297°
2026-05-04 05:35 36.90243 127.84882 33190 ft 380 kts 298°
2026-05-04 05:36 36.91756 127.82188 32701 ft 377 kts 298°
2026-05-04 05:36 36.93235 127.79550 32231 ft 373 kts 298°
2026-05-04 05:36 36.94722 127.76908 31761 ft 370 kts 299°
2026-05-04 05:36 36.96198 127.74296 31297 ft 367 kts 299°
2026-05-04 05:37 36.97665 127.71698 30850 ft 364 kts 300°
2026-05-04 05:37 36.99121 127.69114 30394 ft 361 kts 300°
2026-05-04 05:37 37.00562 127.66561 29942 ft 358 kts 301°
2026-05-04 05:38 37.03386 127.61529 28884 ft 354 kts 301°
2026-05-04 05:38 37.04786 127.59012 28377 ft 351 kts 301°
2026-05-04 05:38 37.06180 127.56500 27876 ft 350 kts 301°
2026-05-04 05:38 37.07566 127.54001 27361 ft 349 kts 301°
2026-05-04 05:39 37.08948 127.51512 26865 ft 347 kts 301°
2026-05-04 05:39 37.11699 127.46555 25904 ft 345 kts 302°
2026-05-04 05:39 37.13068 127.44085 25434 ft 345 kts 302°
2026-05-04 05:40 37.15810 127.39148 24485 ft 345 kts 303°
2026-05-04 05:40 37.17186 127.36674 24018 ft 345 kts 303°
2026-05-04 05:40 37.18560 127.34199 23525 ft 346 kts 303°
2026-05-04 05:41 37.19939 127.31712 22986 ft 347 kts 303°
2026-05-04 05:41 37.21313 127.29232 22456 ft 346 kts 303°
2026-05-04 05:41 37.22662 127.26792 21992 ft 344 kts 304°
2026-05-04 05:41 37.24045 127.24294 21519 ft 343 kts 304°
2026-05-04 05:42 37.25390 127.21866 21062 ft 342 kts 304°
2026-05-04 05:42 37.26568 127.19320 20583 ft 337 kts 292°
2026-05-04 05:42 37.27140 127.16465 20169 ft 340 kts 278°
2026-05-04 05:42 37.27209 127.13487 19707 ft 343 kts 273°
2026-05-04 05:43 37.27181 127.10522 19535 ft 335 kts 273°
2026-05-04 05:43 37.27152 127.07630 19371 ft 328 kts 273°
2026-05-04 05:43 37.27135 127.04804 19220 ft 320 kts 274°
2026-05-04 05:45 37.19851 126.91069 13863 ft 362 kts 178°
2026-05-04 05:45 37.17358 126.91509 13531 ft 359 kts 172°
2026-05-04 05:47 37.03232 126.89681 10112 ft 266 kts 257°
2026-05-04 05:47 37.02769 126.87458 9329 ft 266 kts 266°
2026-05-04 05:47 37.02684 126.85173 8962 ft 258 kts 282°
2026-05-04 05:48 37.03308 126.83157 8650 ft 246 kts 309°
2026-05-04 05:48 37.04507 126.81664 8358 ft 242 kts 324°
2026-05-04 05:48 37.05980 126.80653 8016 ft 242 kts 335°
2026-05-04 05:48 37.07532 126.79833 7703 ft 241 kts 337°
2026-05-04 05:49 37.09032 126.78958 7290 ft 238 kts 327°
2026-05-04 05:49 37.10386 126.77752 7094 ft 242 kts 323°
2026-05-04 05:49 37.11752 126.76492 6986 ft 243 kts 323°
2026-05-04 05:49 37.13094 126.75282 6973 ft 239 kts 324°
2026-05-04 05:51 37.20993 126.64857 5449 ft 233 kts 325°
2026-05-04 05:51 37.22330 126.63690 5149 ft 235 kts 325°
2026-05-04 05:52 37.23667 126.62504 4855 ft 235 kts 324°
2026-05-04 05:52 37.24998 126.61323 4538 ft 234 kts 324°
2026-05-04 05:52 37.26331 126.60146 4234 ft 234 kts 324°
2026-05-04 05:52 37.27662 126.58969 3937 ft 234 kts 323°
2026-05-04 05:53 37.28994 126.57790 3631 ft 234 kts 323°
2026-05-04 05:54 37.36376 126.51260 1927 ft 144 kts 320°
2026-05-04 05:55 37.37141 126.50586 1762 ft 128 kts 319°
2026-05-04 05:55 37.37850 126.49955 1627 ft 125 kts 319°
2026-05-04 05:55 37.38571 126.49311 1454 ft 128 kts 320°
2026-05-04 05:55 37.39307 126.48658 1278 ft 129 kts 319°
2026-05-04 05:56 37.40037 126.48007 1084 ft 129 kts 319°
2026-05-04 05:56 37.40774 126.47351 911 ft 132 kts 320°
2026-05-04 05:56 37.41525 126.46689 743 ft 131 kts 319°
2026-05-04 05:56 37.42268 126.46028 550 ft 131 kts 320°
2026-05-04 05:57 37.43014 126.45369 397 ft 129 kts 320°
2026-05-04 05:57 37.43748 126.44698 230 ft 133 kts 320°
2026-05-04 05:57 37.44505 126.44022 60 ft 133 kts 321°
2026-05-04 05:57 37.45224 126.43375 37 ft 116 kts 325°
2026-05-04 05:58 37.45754 126.42911 38 ft 72 kts 324°
2026-05-04 05:58 37.46048 126.42653 34 ft 25 kts 324°
2026-05-04 05:58 37.46131 126.42585 37 ft 10 kts 338°
2026-05-04 05:58 37.46194 126.42612 38 ft 10 kts 45°
2026-05-04 05:59 37.46229 126.42683 37 ft 9 kts 69°
2026-05-04 05:59 37.46244 126.42763 37 ft 9 kts 75°
2026-05-04 05:59 37.46273 126.42836 37 ft 9 kts 57°
2026-05-04 05:59 37.46309 126.42904 37 ft 9 kts 56°
2026-05-04 06:00 37.46343 126.42967 37 ft 8 kts 52°
2026-05-04 06:00 37.46387 126.43003 37 ft 8 kts 11°
2026-05-04 06:00 37.46428 126.43029 37 ft 6 kts 44°
2026-05-04 06:00 37.46452 126.43077 35 ft 6 kts 65°
2026-05-04 06:01 37.46469 126.43121 37 ft 4 kts 64°
2026-05-04 06:01 37.46476 126.43140 37 ft 1 kts 64°
2026-05-04 06:03 37.46477 126.43143 37 ft 0 kts 64°